Palacios, TX

3:06 PM CST on February 14, 2016 (GMT -0600)
Palacios Municipal

Weather History for KPSX - January, 2014

Change the Weather History Date:

Wednesday, January 29, 2014

  Actual Average Record
Temperature  
Mean Temperature 37 °F -  
Max Temperature 46 °F 64 °F - (-1)
Min Temperature 28 °F 47 °F - (-1)
Degree Days  
Heating Degree Days 28    
Moisture  
Dew Point 22 °F    
Average Humidity 60    
Maximum Humidity 76    
Minimum Humidity 30    
Precipitation  
Precipitation 0.00 in - - ()
Sea Level Pressure  
Sea Level Pressure 30.42 in    
Wind  
Wind Speed 10 mph (NE)    
Max Wind Speed 15 mph    
Max Gust Speed 18 mph    
Visibility 10 miles    
Events      
Averages and records for this station are not official NWS values.
T = Trace of Precipitation, MM = Missing Value Source: NWS Daily Summary

Daily Weather History Graph

Daily Weather History Graph

Search for Another Location

Airport or City:

Trip Planner

Search our weather history database for the weather conditions in past years. The results will help you decide how hot, cold, wet, or windy it might be!

Date:

Astronomy

Jan. 29, 2014 Rise Set
Actual Time 7:14 AM CST 6:01 PM CST
Civil Twilight 6:49 AM CST 6:26 PM CST
Nautical Twilight 6:21 AM CST 6:55 PM CST
Astronomical Twilight 5:53 AM CST 7:23 PM CST
Moon 5:51 AM CST (1/29) 5:02 PM CST (1/29)
Length of Visible Light 11h 36m
Length of Day
10h 47m
Waning Crescent, 2% of the Moon is Illuminated
Jan 29
Waning Crescent
Jan 30
New
Feb 6
First Quarter
Feb 14
Full
Feb 22
Last Quarter

Hourly Weather History & Observations

Time (CST) Temp. Windchill Dew Point Humidity Pressure Visibility Wind Dir Wind Speed Gust Speed Precip Events Conditions
12:53 AM 35.1 °F 30.1 °F 28.0 °F 76% 30.43 in 10.0 mi NNW 5.8 mph - N/A   Clear
1:53 AM 35.1 °F 28.6 °F 27.0 °F 72% 30.44 in 10.0 mi North 8.1 mph - N/A   Clear
2:53 AM 34.0 °F 24.6 °F 24.1 °F 67% 30.43 in 10.0 mi North 13.8 mph - N/A   Clear
3:53 AM 34.0 °F 25.0 °F 23.0 °F 64% 30.43 in 10.0 mi North 12.7 mph - N/A   Clear
4:53 AM 33.1 °F 23.9 °F 23.0 °F 66% 30.42 in 10.0 mi North 12.7 mph - N/A   Clear
5:53 AM 33.1 °F 23.9 °F 23.0 °F 66% 30.42 in 10.0 mi North 12.7 mph - N/A   Clear
6:53 AM 32.0 °F 24.2 °F 24.1 °F 73% 30.45 in 10.0 mi North 9.2 mph - N/A   Clear
7:53 AM 32.0 °F 23.0 °F 24.1 °F 73% 30.47 in 10.0 mi North 11.5 mph - N/A   Clear
8:53 AM 34.0 °F 25.0 °F 23.0 °F 64% 30.50 in 10.0 mi NNE 12.7 mph - N/A   Clear
9:53 AM 36.0 °F 26.7 °F 21.0 °F 55% 30.51 in 10.0 mi NE 15.0 mph - N/A   Clear
10:53 AM 37.9 °F 30.9 °F 19.0 °F 47% 30.51 in 10.0 mi NE 10.4 mph - N/A   Clear
11:53 AM 39.9 °F 32.9 °F 19.0 °F 43% 30.47 in 10.0 mi ENE 11.5 mph - N/A   Clear
12:53 PM 44.1 °F 39.0 °F 19.0 °F 37% 30.45 in 10.0 mi East 9.2 mph - N/A   Clear
1:53 PM 44.1 °F 40.1 °F 17.1 °F 34% 30.43 in 10.0 mi NE 6.9 mph - N/A   Clear
2:53 PM 45.0 °F 39.7 °F 15.1 °F 30% 30.39 in 10.0 mi ENE 10.4 mph 18.4 mph N/A   Clear
3:53 PM 46.0 °F 41.4 °F 17.1 °F 31% 30.36 in 10.0 mi ENE 9.2 mph - N/A   Clear
5:21 PM 43.0 °F 35.7 °F 25.0 °F 49% 30.36 in 10.0 mi ESE 15.0 mph - N/A   Clear
5:53 PM 39.9 °F 32.9 °F 26.1 °F 58% 30.38 in 10.0 mi ESE 11.5 mph - N/A   Clear
6:53 PM 37.9 °F 31.5 °F 27.0 °F 65% 30.39 in 10.0 mi East 9.2 mph - N/A   Clear
7:53 PM 35.1 °F 28.6 °F 25.0 °F 67% 30.38 in 10.0 mi East 8.1 mph - N/A   Clear
8:53 PM 33.1 °F 27.7 °F 24.1 °F 70% 30.38 in 10.0 mi East 5.8 mph - N/A   Clear
9:53 PM 30.9 °F 26.2 °F 23.0 °F 72% 30.37 in 10.0 mi ENE 4.6 mph - N/A   Clear
10:53 PM 28.0 °F 20.8 °F 21.0 °F 75% 30.36 in 10.0 mi NE 6.9 mph - N/A   Clear
11:53 PM 28.9 °F 21.9 °F 21.9 °F 75% 30.32 in 10.0 mi ENE 6.9 mph - N/A   Clear